Elrose, Canada
Current Conditions -  °F | °C
As of 4:00 AM on Thursday 23 Oct 2014 (Local Time) from CYKY Reporting Station
Scattered Clouds Scattered Clouds  
Wind Chill: 37°   Ceiling: Unl
Heat Index: 43°   Visibility: 15mi
Dew Point: 36°   Wind: 10mph
Humidity: 76%   Direction: 170°S
Pressure: 29.63"   Gusts: NA
Location:  51.2°N, 108.03°W
Report Text: CYKY 231000Z 17009KT 15SM FEW050 SCT240 06/02 A2963 RMK SC1CI2 SLP042
Loading
Personal Weather Stations






























Interactive Weather Map
Tropical Storm Tracking
New forecast layout! Learn more

10-Day Weather Forecast

Advertisements
Track Severe Weather on mobile